DW8102 Weather Reports


Display with metric or nautical units.
time (UTC)temp
F
wind
direction
speed
MPH
gust
MPH
rain 1hr
in
rain 24hr
in
rain mn
in
humidity
%
barometer
mb
20260510161527 56 194 0.0 0.0 0.00 0.00 0.00 51 1006.3
20260510160028 56 268 0.0 1.0 0.00 0.00 0.00 51 1006.5
20260510154526 56 210 0.0 0.0 0.00 0.00 0.00 52 1006.6
20260510153036 56 165 0.0 0.0 0.00 0.00 0.00 51 1006.7
20260510151522 57 153 0.0 1.0 0.00 0.00 0.00 48 1006.8
20260510150016 57 135 0.0 1.0 0.00 0.00 0.00 47 1007.1
20260510144521 58 143 0.0 3.0 0.00 0.00 0.00 47 1007.2
20260510143012 58 203 0.0 4.0 0.00 0.00 0.00 49 1007.5
20260510141510 58 177 0.0 1.0 0.00 0.00 0.00 49 1007.6
20260510140007 58 134 0.0 4.0 0.00 0.00 0.00 48 1007.9
20260510134505 59 152 0.0 5.0 0.00 0.00 0.00 46 1007.9
20260510133003 59 186 0.0 9.0 0.00 0.00 0.00 43 1008.1
20260510131501 59 200 0.0 3.0 0.00 0.00 0.00 45 1008.3
20260510130100 60 160 0.0 6.0 0.00 0.00 0.00 42 1008.4
20260510124603 60 209 0.0 10.0 0.00 0.00 0.00 41 1008.7
20260510123053 60 132 0.0 8.0 0.00 0.00 0.00 42 1008.8
20260510121555 60 179 2.0 8.0 0.00 0.00 0.00 42 1009.0
20260510120051 60 166 0.0 6.0 0.00 0.00 0.00 42 1009.3
20260510114601 61 253 0.0 8.0 0.00 0.00 0.00 41 1009.6
20260510113047 61 278 0.0 1.0 0.00 0.00 0.00 44 1009.8
20260510111546 60 167 0.0 6.0 0.00 0.00 0.00 44 1009.9
20260510110045 60 203 0.0 6.0 0.00 0.00 0.00 44 1010.2
20260510104547 61 201 0.0 9.0 0.00 0.00 0.00 43 1010.5
20260510103044 60 194 0.0 2.0 0.00 0.00 0.00 44 1010.7
20260510101536 62 225 0.0 2.0 0.00 0.00 0.00 40 1011.0
20260510100039 62 218 0.0 1.0 0.00 0.00 0.00 42 1011.1
20260510094538 61 139 0.0 1.0 0.00 0.00 0.00 44 1011.3
20260510093031 60 190 0.0 4.0 0.00 0.00 0.00 46 1011.7
20260510091530 59 139 0.0 1.0 0.00 0.00 0.00 47 1011.9
20260510090034 58 170 0.0 5.0 0.00 0.00 0.00 46 1012.0
20260510084528 58 210 0.0 1.0 0.00 0.00 0.00 50 1012.3
20260510083035 57 217 0.0 0.0 0.00 0.00 0.00 52 1012.5
20260510081524 56 169 0.0 2.0 0.00 0.00 0.00 56 1012.7
20260510080022 55 153 0.0 4.0 0.00 0.00 0.00 57 1013.0
20260510074521 55 222 0.0 1.0 0.00 0.00 0.00 58 1013.1
20260510073019 54 142 0.0 2.0 0.00 0.00 0.00 60 1013.3
20260510071517 53 150 0.0 4.0 0.00 0.00 0.00 59 1013.4
20260510070024 54 193 0.0 0.0 0.00 0.00 0.00 64 1013.7
20260510064520 53 142 0.0 1.0 0.00 0.00 0.00 65 1013.9
20260510063013 52 156 0.0 0.0 0.00 0.00 0.00 65 1014.1
20260510061510 51 128 0.0 0.0 0.00 0.00 0.00 70 1014.2
20260510060010 49 188 0.0 1.0 0.00 0.00 0.00 75 1014.3
20260510054513 47 128 0.0 1.0 0.00 0.00 0.00 78 1014.5
20260510053006 45 118 0.0 1.0 0.00 0.00 0.00 79 1014.6
20260510051504 43 99 0.0 0.0 0.00 0.00 0.00 82 1014.9
20260510050003 43 124 0.0 0.0 0.00 0.00 0.00 83 1015.1
20260510044500 42 104 0.0 0.0 0.00 0.00 0.00 83 1015.3
20260510043106 42 104 0.0 0.0 0.00 0.00 0.00 82 1015.3
20260510041611 43 113 0.0 0.0 0.00 0.00 0.00 82 1015.5
20260510040100 42 200 0.0 0.0 0.00 0.00 0.00 83 1015.7
20260510034558 40 123 0.0 1.0 0.00 0.00 0.00 85 1015.7
20260510033057 40 117 0.0 0.0 0.00 0.00 0.00 86 1015.9
20260510031559 39 122 0.0 0.0 0.00 0.00 0.00 86 1016.1
20260510030055 39 153 0.0 2.0 0.00 0.00 0.00 86 1016.2
20260510024557 39 141 0.0 0.0 0.00 0.00 0.00 86 1016.5
20260510023049 39 128 0.0 1.0 0.00 0.00 0.00 86 1016.7
20260510021546 39 127 0.0 1.0 0.00 0.00 0.00 86 1017.0
20260510020051 38 137 0.0 0.0 0.00 0.00 0.00 86 1017.2
20260510014543 39 121 0.0 0.0 0.00 0.00 0.00 85 1017.6
20260510013047 39 116 0.0 0.0 0.00 0.00 0.00 84 1017.7
20260510011539 39 110 0.0 0.0 0.00 0.00 0.00 84 1017.9
20260510010056 39 133 0.0 1.0 0.00 0.00 0.00 83 1018.1
20260510004536 39 146 0.0 0.0 0.00 0.00 0.00 83 1018.2
20260510003035 39 143 0.0 0.0 0.00 0.00 0.00 82 1018.4
20260510001533 39 117 0.0 0.0 0.00 0.00 0.00 80 1018.6
20260510000028 39 119 0.0 0.0 0.00 0.00 0.00 79 1018.8
20260509234526 40 167 0.0 0.0 0.00 0.00 0.00 78 1019.0
20260509233023 40 125 0.0 1.0 0.00 0.00 0.00 77 1019.2
20260509231529 40 126 0.0 0.0 0.00 0.00 0.00 76 1019.3
20260509230020 40 127 0.0 0.0 0.00 0.00 0.00 75 1019.5
20260509224516 41 153 0.0 0.0 0.00 0.00 0.00 73 1019.7
20260509223015 42 184 0.0 0.0 0.00 0.00 0.00 72 1019.8
20260509221525 42 181 0.0 0.0 0.00 0.00 0.00 71 1020.0
20260509220009 43 165 0.0 0.0 0.00 0.00 0.00 71 1020.1
20260509214506 43 165 0.0 0.0 0.00 0.00 0.00 69 1020.0
20260509213005 43 142 0.0 1.0 0.00 0.00 0.00 68 1020.1
20260509211601 44 128 0.0 0.0 0.00 0.00 0.00 67 1020.2
20260509210103 44 119 0.0 0.0 0.00 0.00 0.00 66 1020.4
20260509204600 45 139 0.0 1.0 0.00 0.00 0.00 63 1020.5
20260509203055 45 122 0.0 4.0 0.00 0.00 0.00 61 1020.5
20260509201550 46 193 0.0 1.0 0.00 0.00 0.00 60 1020.6
20260509200048 47 124 0.0 0.0 0.00 0.00 0.00 56 1020.6
20260509194544 48 122 0.0 0.0 0.00 0.00 0.00 54 1020.6
20260509193046 48 131 0.0 2.0 0.00 0.00 0.00 51 1020.6
20260509191552 49 132 0.0 0.0 0.00 0.00 0.00 51 1020.6
20260509190043 50 128 0.0 1.0 0.00 0.00 0.00 49 1020.6
20260509184536 52 134 0.0 3.0 0.00 0.00 0.00 47 1020.6
20260509183034 53 176 0.0 5.0 0.00 0.00 0.00 44 1020.6
20260509181526 53 142 0.0 7.0 0.00 0.00 0.00 44 1020.6
20260509180024 54 137 0.0 6.0 0.00 0.00 0.00 43 1020.7
20260509174524 54 129 0.0 1.0 0.00 0.00 0.00 42 1020.7
20260509173018 55 142 0.0 0.0 0.00 0.00 0.00 42 1020.8
20260509171515 56 134 0.0 2.0 0.00 0.00 0.00 39 1020.8
20260509170026 56 143 0.0 4.0 0.00 0.00 0.00 37 1020.8
20260509164512 58 135 0.0 5.0 0.00 0.00 0.00 37 1020.8
20260509163010 59 151 0.0 9.0 0.00 0.00 0.00 36 1020.8